Location: Gwatt
(46.7204°N, 7.6223°E)
Time: 22:55:05
(UTC+00:00)

Tiros 1 despin weight - Pass Details

Date: 26 January 2021
Orbit: 593 x 642 km, 48.2° (Epoch: 08 March)

Event Time Altitude Azimuth Distance (km) Brightness Sun altitude
Rises 17:28:02 0° 286° (WNW) 2,867 ? -11.0°
Reaches altitude 10° 17:30:21 10° 284° (WNW) 1,953 ? -11.4°
Maximum altitude 17:34:49 72° 201° (SSW) 632 ? -12.1°
Enters shadow 17:38:57 12° 117° (ESE) 1,824 ? -12.8°
